YAOGAN-30 P (44450 NORAD) Tracking and Keplerian Element Data

This shows tracking and keplerian element data for the satellite.

Feedback or suggestion? Click here.




ElementValue
Catalog44450
NameYAOGAN-30 P
Epoch Orbit431
Epoch Day236.0942686
Epoch Year2019
RAAN165.5254
Inclination34.995
Eccentricity0.0010062
Argument of Perigee192.8967
Mean Anonmoly167.148
Mean Motion14.89664651
Decay Rate8.6E-07
L11 44450U 19045B 19236.09426860 .00000086 00000-0 11587-4 0 9992
L22 44450 34.9950 165.5254 0010062 192.8967 167.1480 14.89664651 4313

Live tracking and technical data element details for YAOGAN-30 P (NORAD 44450). YAOGAN-30 P can be tracked NOW for your location showing map with azimuth and elevation plus other details from your city location.

Track the satellite on the map from your city or location and see movement details for azimuth, elevation, latitude, longitude, range, height, and movement on the map or in text.







IsCatalogInMostPopularTable: catalog: 44450, numindb: 14
Update: records affected: 1



GetName: 44450 YAOGAN-30 P

Hit Count: updated at: Tue, 22 Oct 2019 23:51:52 GMT